Nurnberg, Germany

10:55 PM CEST on September 19, 2017 (GMT +0200)
Nurnberg

Weather History for EDDN - June, 2013

Change the Weather History Date:

Saturday, June 29, 2013

  Actual Average Record
Temperature  
Mean Temperature 56 °F -  
Max Temperature 61 °F 75 °F 92 °F (2012)
Min Temperature 51 °F 54 °F 41 °F (2000)
Degree Days  
Heating Degree Days 9    
Growing Degree Days 6 (Base 50)    
Moisture  
Dew Point 52 °F    
Average Humidity 91    
Maximum Humidity 100    
Minimum Humidity 77    
Precipitation  
Precipitation 0.51 in 0.09 in - ()
Sea Level Pressure  
Sea Level Pressure 30.08 in    
Wind  
Wind Speed 4 mph ()    
Max Wind Speed 16 mph    
Max Gust Speed -    
Visibility 7.6 miles    
Events Fog , Rain    
Averages and records for this station are not official NWS values.
T = Trace of Precipitation, MM = Missing Value Source: Averaged Metar Reports

Daily Weather History Graph

Daily Weather History Graph

Search for Another Location

Airport or City:

Trip Planner

Search our weather history database for the weather conditions in past years. The results will help you decide how hot, cold, wet, or windy it might be!

Date:

Astronomy

Jun. 29, 2013 Rise Set
Actual Time 5:11 AM CEST 9:26 PM CEST
Civil Twilight 4:28 AM CEST 10:09 PM CEST
Nautical Twilight 3:25 AM CEST 11:11 PM CEST
Astronomical Twilight 1:51 AM CEST 12:46 AM CEST
Moon 12:08 AM CEST (6/29) 12:47 PM CEST (6/29)
Length of Visible Light 17h 40m
Length of Day
16h 14m
Waning Gibbous, 58% of the Moon is Illuminated
Jun 29
Waning Gibbous
Jun 30
Last Quarter
Jul 8
New
Jul 16
First Quarter
Jul 22
Full

Hourly Weather History & Observations

Time (CEST) Temp. Dew Point Humidity Pressure Visibility Wind Dir Wind Speed Gust Speed Precip Events Conditions
12:00 AM 54 °F 49 °F 77% 30.16 in 12 mi SSE 2.2 mph - -   Mostly Cloudy
12:20 AM 51.8 °F 48.2 °F 88% 30.15 in - East 3.5 mph - N/A   Clear
12:50 AM 51.8 °F 48.2 °F 88% 30.12 in - East 3.5 mph - N/A   Clear
1:00 AM 52 °F 49 °F 85% 30.15 in 12 mi SE 4.5 mph - -   Mostly Cloudy
1:20 AM 51.8 °F 48.2 °F 88% 30.12 in - East 4.6 mph - N/A   Clear
1:50 AM 51.8 °F 48.2 °F 88% 30.12 in - East 4.6 mph - N/A   Clear
2:00 AM 52 °F 49 °F 85% 30.14 in 16 mi ESE 4.5 mph - -   Scattered Clouds
2:20 AM 51.8 °F 48.2 °F 88% 30.12 in - East 4.6 mph - N/A   Clear
2:50 AM 51.8 °F 48.2 °F 88% 30.12 in - East 4.6 mph - N/A   Clear
3:00 AM 52 °F 49 °F 86% 30.13 in 16 mi SE 4.5 mph - -   Mostly Cloudy
3:20 AM 51.8 °F 48.2 °F 88% 30.09 in - East 3.5 mph - N/A   Clear
3:50 AM 51.8 °F 48.2 °F 88% 30.09 in - Variable 2.3 mph - N/A   Clear
4:00 AM 52 °F 49 °F 85% 30.12 in 12 mi SSE 2.2 mph - -   Mostly Cloudy
4:20 AM 51.8 °F 48.2 °F 88% 30.09 in - East 2.3 mph - N/A   Clear
4:50 AM 53.6 °F 48.2 °F 82% 30.09 in - East 3.5 mph - N/A   Clear
5:20 AM 53.6 °F 48.2 °F 82% 30.09 in - East 3.5 mph - N/A   Clear
5:50 AM 53.6 °F 48.2 °F 82% 30.06 in - East 3.5 mph - N/A   Clear
6:00 AM 54 °F 49 °F 78% 30.09 in 16 mi South 4.5 mph - - Rain Light Rain
6:20 AM 53.6 °F 48.2 °F 82% 30.06 in 6.2 mi East 3.5 mph - N/A   Mostly Cloudy
6:50 AM 53.6 °F 48.2 °F 82% 30.06 in 6.2 mi East 5.8 mph - N/A Rain Light Rain
7:00 AM 54 °F 50 °F 81% 30.08 in 14 mi South 4.5 mph - - Rain Light Rain
7:20 AM 53.6 °F 50.0 °F 88% 30.06 in 6.2 mi ESE 5.8 mph - N/A Rain Light Rain
7:50 AM 53.6 °F 50.0 °F 88% 30.06 in 6.2 mi Variable 5.8 mph - N/A Rain Light Rain
8:00 AM 54 °F 51 °F 88% 30.09 in 11 mi South 6.7 mph - - Rain Light Rain
8:20 AM 53.6 °F 50.0 °F 88% 30.06 in 6.2 mi South 6.9 mph - N/A Rain Rain
8:50 AM 53.6 °F 51.8 °F 94% 30.06 in 6.2 mi South 6.9 mph - N/A Rain Rain
9:00 AM 54 °F 52 °F 92% 30.08 in 8 mi South 6.7 mph - - Rain Rain
9:20 AM 53.6 °F 51.8 °F 94% 30.06 in 6.2 mi SSE 4.6 mph - N/A Rain Rain
9:50 AM 55.4 °F 51.8 °F 88% 30.06 in 6.2 mi SSW 5.8 mph - N/A Rain Rain
10:00 AM 55 °F 53 °F 91% 30.07 in 6 mi South 8.9 mph - - Rain Rain
10:20 AM 55.4 °F 51.8 °F 88% 30.06 in 6.2 mi South 6.9 mph - N/A Rain Rain
10:50 AM 53.6 °F 51.8 °F 94% 30.06 in 6.2 mi South 6.9 mph - N/A Rain Rain
11:20 AM 53.6 °F 51.8 °F 94% 30.04 in 5.6 mi South 6.9 mph - N/A Rain Rain
11:50 AM 53.6 °F 51.8 °F 94% 30.04 in 5.0 mi SSE 6.9 mph - N/A Rain Rain
12:00 PM 54 °F 54 °F 100% 30.05 in 5 mi South 11.2 mph - - Rain Rain
12:20 PM 53.6 °F 53.6 °F 100% 30.04 in 2.8 mi South 8.1 mph - N/A Rain Rain
12:50 PM 53.6 °F 53.6 °F 100% 30.04 in 2.5 mi SSE 9.2 mph - N/A Rain Rain
1:00 PM 54 °F 54 °F 100% 30.04 in 2 mi SSE 11.2 mph - - Rain Rain
1:20 PM 55.4 °F 55.4 °F 100% 30.04 in 2.5 mi SSE 8.1 mph - N/A Rain Light Rain
1:50 PM 55.4 °F 55.4 °F 100% 30.04 in 3.1 mi South 5.8 mph - N/A   Light Drizzle
2:00 PM 56 °F 55 °F 97% 30.03 in 3 mi South 8.9 mph - - Rain Light Drizzle
2:20 PM 55.4 °F 55.4 °F 100% 30.01 in 3.1 mi SSE 6.9 mph - N/A Rain Rain
2:50 PM 55.4 °F 55.4 °F 100% 30.01 in 3.7 mi Variable 2.3 mph - N/A Rain Light Rain
3:00 PM 56 °F 56 °F 100% 30.02 in 4 mi South 6.7 mph - - Rain Light Rain
3:20 PM 57.2 °F 57.2 °F 100% 30.01 in 3.1 mi SSW 3.5 mph - N/A   Light Drizzle
3:50 PM 57.2 °F 57.2 °F 100% 30.04 in - West 6.9 mph - N/A   Light Drizzle
4:00 PM 58 °F 58 °F 100% 30.01 in 9 mi West 6.7 mph - - Rain Light Drizzle
4:20 PM 59.0 °F 57.2 °F 94% 30.04 in 6.2 mi WNW 5.8 mph - N/A   Mostly Cloudy
4:50 PM 60.8 °F 57.2 °F 88% 30.04 in 6.2 mi Variable 2.3 mph - N/A   Mostly Cloudy
5:20 PM 60.8 °F 57.2 °F 88% 30.04 in 6.2 mi Variable 3.5 mph - N/A   Mostly Cloudy
5:50 PM 60.8 °F 57.2 °F 88% 30.04 in 6.2 mi WNW 3.5 mph - N/A   Mostly Cloudy
6:00 PM 61 °F 58 °F 88% 30.02 in 19 mi West 4.5 mph - - Rain Light Rain
6:20 PM 60.8 °F 57.2 °F 88% 30.04 in 6.2 mi SW 3.5 mph - N/A Rain Light Rain Showers
6:50 PM 59.0 °F 55.4 °F 88% 30.06 in 6.2 mi WNW 8.1 mph - N/A Rain Light Rain Showers
7:00 PM 59 °F 57 °F 89% 30.05 in 9 mi NW 15.7 mph - - Rain Light Rain Showers
7:20 PM 55.4 °F 53.6 °F 94% 30.06 in 6.2 mi NNW 5.8 mph - N/A Rain Light Rain
7:50 PM 57.2 °F 53.6 °F 88% 30.09 in 6.2 mi Variable 1.2 mph - N/A   Mostly Cloudy
8:00 PM 57 °F 55 °F 91% 30.09 in 19 mi NW 4.5 mph - - Rain Light Rain
8:20 PM 57.2 °F 55.4 °F 94% 30.09 in 6.2 mi NW 2.3 mph - N/A   Mostly Cloudy
8:50 PM 57.2 °F 55.4 °F 94% 30.09 in 6.2 mi Variable 1.2 mph - N/A   Mostly Cloudy
9:00 PM 58 °F 56 °F 90% 30.11 in 16 mi WNW 4.5 mph - - Rain Light Rain
9:20 PM 57.2 °F 53.6 °F 88% 30.12 in 6.2 mi NW 2.3 mph - N/A Fog Shallow Fog
9:50 PM 55.4 °F 53.6 °F 94% 30.12 in 6.2 mi Variable 1.2 mph - N/A Fog Shallow Fog
10:00 PM 56 °F 55 °F 94% 30.14 in 16 mi WNW 4.5 mph - - Fog Shallow Fog
10:20 PM 55.4 °F 53.6 °F 94% 30.15 in 6.2 mi North 2.3 mph - N/A   Scattered Clouds
10:50 PM 55.4 °F 53.6 °F 94% 30.15 in 6.2 mi NW 1.2 mph - N/A   Scattered Clouds
11:20 PM 55.4 °F 53.6 °F 94% 30.18 in 6.2 mi NW 3.5 mph - N/A Fog Shallow Fog
11:50 PM 53.6 °F 51.8 °F 94% 30.18 in 6.2 mi NNW 2.3 mph - N/A Fog Shallow Fog